Hourly Data Report for February 06, 2005

TORONTO CITY
ONTARIO

43°40'00.000" N
79°24'00.000" W
112.50 m
6158355
71508
XTO

Download Data

Hourly Data (February 2005)
Hourly Data Report for February 6, 2005
TIME
LST
Temp Definition
°C
Dew Point Definition
°C
Rel Hum Definition
%
Precip. Amount Definition
mm

Wind Dir Definition
10's deg

Wind Spd Definition
km/h
Visibility Definition
km
Stn Press Definition
kPa
Hmdx Definition


Wind Chill Definition


Weather Definition


00:00 0.7 -0.5 92   LegendMM LegendMM   101.74     LegendNANA
01:00 -0.7 -1.5 94   LegendMM LegendMM   101.72     LegendNANA
02:00 -0.9 -1.3 97   LegendMM LegendMM   101.77     LegendNANA
03:00 -0.9 -1.2 98   LegendMM LegendMM   101.77     LegendNANA
04:00 -0.7 -0.9 99   LegendMM LegendMM   101.80     LegendNANA
05:00 -0.3 -0.4 99   LegendMM LegendMM   101.83     LegendNANA
06:00 0.1 0.0 99   LegendMM LegendMM   101.80     LegendNANA
07:00 0.2 0.2 100   LegendMM LegendMM   101.83     LegendNANA
08:00 0.2 0.2 100   LegendMM LegendMM   101.79     LegendNANA
09:00 0.4 0.4 100   LegendMM LegendMM   101.77     LegendNANA
10:00 0.5 0.5 100   LegendMM LegendMM   101.75     LegendNANA
11:00 0.5 0.5 100   LegendMM LegendMM   101.77     LegendNANA
12:00 0.6 0.5 99   LegendMM LegendMM   101.71     LegendNANA
13:00 1.3 0.8 96   LegendMM LegendMM   101.65     LegendNANA
14:00 1.8 -0.6 84   LegendMM LegendMM   101.60     LegendNANA
15:00 1.3 -0.2 90   LegendMM LegendMM   101.57     LegendNANA
16:00 1.1 -0.2 91   LegendMM LegendMM   101.56     LegendNANA
17:00 0.9 -0.1 93   LegendMM LegendMM   101.56     LegendNANA
18:00 1.2 0.1 92   LegendMM LegendMM   101.55     LegendNANA
19:00 1.5 0.7 94   LegendMM LegendMM   101.52     LegendNANA
20:00 1.6 0.8 94   LegendMM LegendMM   101.48     LegendNANA
21:00 2.6 1.7 94   LegendMM LegendMM   101.41     LegendNANA
22:00 2.4 1.3 92   LegendMM LegendMM   101.30     LegendNANA
23:00 2.7 0.9 88   LegendMM LegendMM   101.29     LegendNANA

Notes on Data Quality.

Legend

  • E = Estimated
  • M = Missing
  • NA = Not Available*
  • [empty] = Indicates an unobserved value
Date modified: